Regional Weather Roundup
Issued by NWS

Home | Current Version | Previous Version | Graphics & Text | Print | Product List | Glossary On
Versions: 1 2 3 4 5 6 7 8 9 10 11 12 13 14 15 16 17 18 19 20 21 22 23 24 25 26 27 28 29 30 31 32 33 34 35 36 37 38 39 40 41 42 43 44 45 46 47 48 49
000
ASUS45 KSLC 220210
RWRUT

UTAH REGIONAL WEATHER ROUNDUP
NATIONAL WEATHER SERVICE SALT LAKE CITY UT
800 PM MDT SUN SEP 21 2014

UTZ001>011-023>025-220300-

NORTHERN UTAH

CITY           SKY/WX    TMP DP  RH WIND       PRES   REMARKS
HILL AFB       PTCLDY    60  54  78 E10       30.16R
LOGAN          CLEAR     58  56  93 NW3       30.15F
OGDEN          MOCLDY    61  59  93 CALM      30.15R
PROVO AIRPORT  PTCLDY    63  55  77 CALM      30.16F
SALT LAKE CITY PTCLDY    65  57  75 SE5       30.12S
VERNAL         PTCLDY    57  55  93 NE8       30.23S
WENDOVER       CLOUDY    59  50  72 N16G25    30.16R THUNDER
HEBER CITY     MOCLDY    54  52  94 CALM      30.21R
WEST JORDAN    CLEAR     63  57  82 S3        30.16R

$$

UTZ012>022-026-027-220300-

SOUTHERN UTAH

CITY           SKY/WX    TMP DP  RH WIND       PRES   REMARKS
BRYCE CANYON   CLEAR     54  49  83 CALM      30.30S
CEDAR CITY     PTCLDY    63  56  78 S5        30.15R
MILFORD        MOCLDY    65  59  81 N7        30.13R
MOAB/CYNLANDS  CLEAR     67  63  87 SE6       30.13S
PRICE          PTCLDY    60  55  83 NW6       30.22S
ST GEORGE      MOCLDY    75  63  64 S3        30.00R
KANAB            N/A     68  55  64 NE3       30.15R

$$

REGIONAL REPORTS     COLORADO/ARIZONA

CITY           SKY/WX    TMP DP  RH WIND       PRES   REMARKS
CRAIG, CO      CLOUDY    59  50  72 W10G21    30.32R
GRAND JUNCTION CLOUDY    61  57  87 NE3       30.20S
RIFLE          MOCLDY    66  54  65 NW8       30.22R
MONTROSE       MOCLDY    65  55  70 N6        30.25R
CORTEZ         CLOUDY    71  50  47 N3        30.20R
PAGE, AZ       CLEAR     78  55  44 W5        30.08R
GRAND CANYON   CLEAR     60  44  55 CALM      30.25R
KINGMAN        CLEAR     77  35  21 SW8       30.02R
FLAGSTAFF      CLEAR     60  49  66 CALM      30.29R

$$

REGIONAL REPORTS    NEVADA/IDAHO/WYOMING

CITY           SKY/WX    TMP DP  RH WIND       PRES   REMARKS
LAS VEGAS, NV  PTCLDY    91  41  17 S9        29.86R
ELY            CLOUDY    53  48  83 NE5       30.25F
ELKO           CLOUDY    61  45  55 SW5       30.13R
POCATELLO, ID  LGT RAIN  58  58 100 S6        30.15S
BURLEY         CLOUDY    60  58  92 CALM      30.11R
EVANSTON, WY   MOCLDY    51  48  89 E9        30.29R
ROCK SPRINGS   LGT RAIN  53  51  93 SW6       30.32R

$$


USA.gov is the U.S. government's official web portal to all federal, state and local government web resources and services.